This demonstration page uses our WeatherBlox Daily Observations layout. Learn more.

Left ArrowRight Arrow

38.88101, -77.10428

Hourly Observations for May 19, 2020

Temp ( °F °C ) Dew Point ( °F °C ) Humidity (%) Winds ( mph kmh ) Pressure ( in mb ) Visibility ( mi km ) Precip ( " mm )
12:52 am 00:52 Cloudy 62 16.7 46 7.8 56 56 NE 8 13 30.04 1017 10 16.0934 0 0
1:52 am 01:52 Cloudy 61 16.1 46 7.8 58 58 NE 9 15 30.05 1018 10 16.0934 0 0
2:52 am 02:52 Cloudy 61 16.1 47 8.3 60 60 ENE 14 22 30.05 1018 10 16.0934 0 0
3:52 am 03:52 Cloudy 60 15.6 47 8.3 62 62 ENE 13 20 30.05 1018 10 16.0934 0 0
4:52 am 04:52 Cloudy 59 15 47 8.3 64 64 ENE 15 24 30.06 1018 10 16.0934 0 0
5:52 am 05:52 Cloudy 57 13.9 47 8.3 69 69 NE 14 22 30.07 1018 10 16.0934 0 0
6:52 am 06:52 Cloudy 58 14.4 48 8.9 70 70 NE 12 19 30.09 1019 10 16.0934 0 0
7:52 am 07:52 Cloudy 59 15 49 9.4 69 69 ENE 14 22 30.11 1020 10 16.0934 0 0
8:52 am 08:52 Cloudy 61 16.1 48 8.9 63 63 ENE 15 24 30.11 1020 10 16.0934 0 0
9:52 am 09:52 Cloudy 63 17.2 46 7.8 54 54 ENE 21 33 30.13 1020 10 16.0934 0 0
10:52 am 10:52 Cloudy 63 17.2 46 7.8 54 54 ENE 17 28 30.15 1021 10 16.0934 0 0
11:52 am 11:52 Cloudy 64 17.8 43 6.1 46 46 E 17 28 30.16 1021 10 16.0934 0 0
12:52 pm 12:52 Cloudy 67 19.4 40 4.4 37 37 E 21 33 30.15 1021 10 16.0934 0 0
1:52 pm 13:52 Cloudy 69 20.6 36 2.2 30 30 E 26 43 30.16 1021 10 16.0934 0 0
2:52 pm 14:52 Cloudy 69 20.6 37 2.8 31 31 E 22 35 30.17 1022 10 16.0934 0 0
3:52 pm 15:52 Mostly Cloudy 66 18.9 37 2.8 34 34 E 23 37 30.17 1022 10 16.0934 0 0
4:52 pm 16:52 Mostly Cloudy 65 18.3 34 1.1 32 32 E 25 41 30.18 1022 10 16.0934 0 0
5:52 pm 17:52 Mostly Cloudy 63 17.2 34 1.1 34 34 E 17 28 30.2 1023 10 16.0934 0 0
6:52 pm 18:52 Mostly Cloudy 62 16.7 34 1.1 35 35 E 18 30 30.2 1023 10 16.0934 0 0
7:52 pm 19:52 Mostly Cloudy 61 16.1 34 1.1 36 36 E 25 41 30.22 1024 10 16.0934 0 0
8:52 pm 20:52 Mostly Cloudy 60 15.6 35 1.7 39 39 ENE 22 35 30.24 1024 10 16.0934 0 0
9:52 pm 21:52 Clear 59 15 34 1.1 39 39 ENE 16 26 30.27 1025 10 16.0934 0 0
10:52 pm 22:52 Cloudy 58 14.4 33 0.6 39 39 ENE 13 20 30.27 1025 10 16.0934 0 0
11:52 pm 23:52 Cloudy 57 13.9 32 0 39 39 E 17 28 30.28 1026 10 16.0934 0 0

Powered by AerisWeather